Location: Eenumerhoogte
(53.3420°N, 6.7843°E)
Time: 11:12:06
(UTC+00:00)

TSX-5 - Pass Details

Date: 15 May 2026
Orbit: 387 x 993 km, 68.9° (Epoch: 6 June)

Event Time Altitude Azimuth Distance (km) Brightness Sun altitude
Rises 22:24:00 0° 319° (NW) 2,293 8.2 -16.3°
Reaches altitude 10° 22:26:01 10° 312° (NW) 1,450 6.8 -16.3°
Maximum altitude 22:28:59 40° 241° (WSW) 627 4.0 -16.5°
Enters shadow 22:29:40 35° 208° (SSW) 700 4.0 -16.5°
